www.pogodaiklimat.ru
ПОГОДА в Стерджен Бэй
Время
(UTC), дата
11:56 21.11
12:37 21.11
12:56 21.11
13:56 21.11
14:56 21.11
15:16 21.11
15:40 21.11
15:56 21.11
16:10 21.11
16:19 21.11
16:33 21.11
16:47 21.11
16:56 21.11
17:04 21.11
17:20 21.11
17:35 21.11
17:53 21.11
17:56 21.11
18:21 21.11
18:33 21.11
18:56 21.11
19:08 21.11
19:23 21.11
19:35 21.11
19:56 21.11
20:56 21.11
21:12 21.11
21:56 21.11
22:56 21.11
23:56 21.11
00:56 21.11
01:56 21.11
02:56 21.11
03:56 21.11
04:56 21.11
05:36 22.11
05:56 22.11
06:56 22.11
07:24 22.11
07:56 22.11
08:24 22.11
08:56 22.11
09:39 22.11
09:56 22.11
10:56 22.11
11:56 22.11
12:56 22.11
13:56 22.11
Ветер
(напр.,м/с)
Видим. Явления Облачность Т
(С)
Тd
(С)
f
(%)
Тe
(С)
Тes
(С)
Комфортность P
(гПа)
Po
(гПа)
Тmin
(С)
Tmax
(С)
R
(мм)
R24
(мм)
S
(см)
Ю 10
{13}
8 км слабый дождь, дымка 10/10 210 м +5.6 +5.0 96 -1 -1 1004.8 978.2
Ю 10
{13}
10 км слабый дождь, дымка 10/10 150 м +6.0 +5.0 93 -1 -1 977.6
Ю 9
{13}
8 км слабый дождь, дымка 10/10 150 м +5.6 +5.0 96 -1 -1 1004.0 977.6
Ю 7
{10}
16 км слабый дождь 10/10 150 м +5.6 +5.0 96 -0 -0 1002.6 976.3
Ю 5 6 км слабый дождь, дымка 10/10 150 м +5.6 +5.6 100 0 0 1002.1 975.6
Ю 6 10 км слабый дождь, дымка 10/10 90 м +6.0 +6.0 100 +1 +1 975.3
Ю 3 10 км слабый дождь, дымка 10/10 150 м +6.0 +6.0 100 +2 +2 974.9
Ю 4 6 км слабый дождь, дымка 10/10 150 м +6.1 +5.6 97 +2 +2 1001.0 974.6
Ю 3 3 км слабый дождь, дымка 10/10 150 м +6.0 +6.0 100 +2 +2 974.6
Ю 4 5 км дождь, дымка 10/10 150 м +6.0 +6.0 100 +2 +2 974.3
ЮЗ 3 5 км дождь, дымка 10/10 90 м +6.0 +6.0 100 +2 +2 973.9
ЮЗ 2 6 км слабый дождь, дымка 10/10 90 м +6.0 +6.0 100 +3 +3 973.6
ЮЗ 3 6 км слабый дождь, дымка 10/10 90 м +6.1 +6.1 100 +3 +3 1000.0 973.6 +5.6 +6.1
ЮЗ 2 4 км слабый дождь, дымка 10/10 90 м +7.0 +6.0 93 +4 +4 973.6
З 2 3 км слабый дождь, дымка 10/10 90 м +7.0 +6.0 93 +4 +4 973.9
СЗ 4 2 км слабый дождь, дымка 10/10 90 м +6.0 +5.0 93 +1 +1 973.9
СЗ 5 5 км слабый дождь, дымка 10/10 90 м +6.0 +6.0 100 +1 +1 973.9
СЗ 4 6 км дымка 10/10 90 м +5.6 +5.6 100 +1 +1 1000.5 974.3
СЗ 6
{9}
4 км слабый дождь, дымка 10/10 90 м +6.0 +6.0 100 +1 +1 974.3
СЗ 7 8 км слабый дождь, дымка 10/10 90 м +6.0 +6.0 100 0 0 974.3
СЗ 7
{10}
16 км 10/10 90 м +5.6 +5.0 96 -0 -0 1001.3 974.9
СЗ 8 16 км 10/10 150 м +6.0 +4.0 87 0 0 975.3
СЗ 7 16 км 10/10 270 м +5.0 +4.0 93 -1 -1 975.6
СЗ 8 16 км 10/10 360 м +5.0 +3.0 87 -1 -1 975.9
СЗ 9 16 км 10/10 420 м +4.4 +2.8 89 -2 -2 1003.2 976.6
СЗ 7
{11}
16 км 10/10 420 м +3.3 +1.1 85 -3 -3 1005.3 978.6
СЗ 7
{11}
16 км 10/10 480 м +3.0 +1.0 87 -4 -4 979.6
СЗ 8
{12}
16 км 10/10 600 м +3.3 0.0 79 -3 -3 1007.5 980.9
СЗ 7
{11}
16 км 10/10 750 м +2.8 -1.1 75 -4 -4 1009.2 982.5 +2.8 +6.7
СЗ 7
{11}
16 км 10/10 780 м +2.2 -1.7 75 -5 -5 1010.2 983.5
СЗ 8
{11}
16 км слабый дождь 10/10 630 м +1.1 -2.2 79 -6 -6 1011.5 984.8
СЗ 9
{11}
14 км слабый снег 10/10 570 м +0.6 -2.8 78 -7 -7 1013.0 986.2
СЗ 7
{11}
11 км неопределенные осадки 10/10 480 м 0.0 -2.2 85 -7 -7 1013.8 986.8
СЗ 7
{10}
16 км 10/10 840 м -0.6 -5.6 69 -8 -8 1014.9 988.1
СЗ 8
{13}
16 км 10/10 840 м -1.1 -6.1 69 -9 -9 1015.8 988.8 -1.1 +2.8
СЗ 8
{9}
16 км 10/10 900 м -1.0 -7.0 64 -9 -9 989.1
СЗ 7
{11}
16 км 10/10 960 м -1.1 -7.2 63 -9 -9 1016.5 989.5
СЗ 6
{11}
16 км 10/10 900 м -1.7 -6.7 69 -9 -9 1017.7 990.8
СЗ 9
{11}
14 км слабый снег 10/10 840 м -2.0 -6.0 74 -11 -11 990.8
СЗ 7
{10}
14 км слабый снег 10/10 840 м -1.7 -7.8 63 -9 -9 1018.7 991.4
СЗ 7
{12}
16 км 10/10 930 м -2.0 -7.0 69 -10 -10 991.8
С 8
{10}
16 км 10/10 990 м -2.2 -7.8 65 -10 -10 1019.2 991.8
СЗ 7
{10}
16 км 10/10 870 м -2.0 -7.0 69 -10 -10 992.4
СЗ 4 16 км 10/10 870 м -2.2 -7.2 69 -9 -9 1019.7 992.4
СЗ 7 16 км 10/10 750 м -2.8 -7.2 72 -11 -11 -2.8 -1.1 8.6
С 8 16 км 10/10 750 м -2.8 -7.2 72 -11 -11 1021.2 993.7
СЗ 5 16 км 8/8 810 м -2.8 -8.3 66 -10 -10 1021.8 994.4
СЗ 4 16 км 8/8 870 м -2.2 -7.2 69 -9 -9 1022.3 994.7
Местоположение метеостанции Door County Cherryland Airport: широта 44.8500 долгота -87.4167 высота над уровнем моря 221 м.
В архиве по умолчанию представлена погода в Стерджен Бэй за последние 1-2 суток. Обновление информации о фактической погоде в базе происходит ежечасно! Архивные данные за месяц целиком и за предыдущие месяцы Вы можете получить, выбрав интересующий диапазон дат из раскрывающегося списка и нажав кнопку "Ввод!".
Внимание! Архив погоды МЕТАР в базе сайта по станциям, не включенным в климатический монитор, хранится не более 60 дней. Нет смысла пытаться выбрать более раннюю дату.
*Определитесь, кто Вы:
Внимание! Время в таблицах - всемирное. Для получения местного времени необходимо прибавить поправку, которая равна ч.
Смотрите также архив погоды в соседних городах и на ближайших метеорологических станциях:
Партнеры нашего сайта:      
Пояснения к столбцам:
  • Ветер - указаны скорость ветра в м/с - средняя за 10 мин, порывы в срок и между сроками (в фигурных скобках) и направление, откуда дует ветер: С - северный,
  • СВ - северо-восточный, В - восточный, ЮВ - юго-восточный, Ю - южный, ЮЗ - юго-западный, З - западный, СЗ - северо-западный.
  • Видимость - горизонтальная дальность видимости в метрах или километрах. При видимости от 1 до 10 км при отсутствии осадков обычно наблюдается дымка, при ухудшении видимости до 1 км и менее - туман. В сухую погоду видимость может ухудшаться дымом, пылью или мглою.
  • Явления - указаны атмосферные явления, наблюдавшиеся в срок или в последний час перед сроком; фигурными скобками обозначены явления, наблюдавшиеся между сроками (за 1-3 часа до срока); квадратными скобками обозначены град или гололедные отложения с указанием их диаметра в мм.
  • Облачность - указаны через наклонную черту общая и нижняя облачность в баллах и высота нижней границы облаков в метрах; квадратными скобками обозначены формы облаков: Ci - перистые, Cs - перисто-слоистые, Cc - перисто-кучевые, Ac - высококучевые, As - высокослоистые, Sc - слоисто-кучевые, Ns - слоисто-дождевые, Cu - кучевые, Cb - кучево-дождевые. Подробнее классификацию облаков см. в Атласе облаков (PDF).
  • T - Температура воздуха - температура, измеренная на высоте 2 м над землей.
  • Td - Температура точки росы - температура, при понижении до которой содержащийся в воздухе водяной пар достигнет насыщения.
  • f - Относительная влажность воздуха - влажноcть воздуха, измеренная на высоте 2 м над землей.
  • Te - Эффективная температура - температура, которую ощущает одетый по сезону человек в тени. Характеристика душности погоды. При расчете учитывается влияние влажности воздуха и скорости ветра на теплоощущения человека.
  • Tes - Эффективная температура на солнце - температура, которую ощущает человек, с поправкой на солнечный нагрев. Характеристика знойности погоды. Зависит от высоты солнца над горизонтом, облачности и скорости ветра. Ночью, в пасмурную погоду, а также при ветре 12 м/с и более поправка равна нулю.
  • P - Атмосферное давление - приведенное к уровню моря атмосферное давление.
  • Po - Атмосферное давление - измеренное на уровне метеостанции атмосферное давление.
  • Tmin - Минимальная температура - минимум температуры воздуха на высоте 2 м над землей.
  • Tmax - Максимальная температура - максимум температуры воздуха на высоте 2 м над землей.
  • R - Количество осадков - Количество выпавших осадков за период времени, мм. При наведении курсора мыши на число - период времени, за который выпало указанное количество осадков.
  • R24 - Количество осадков - Количество выпавших осадков за 24 часа, мм.
  • S - Снежный покров - Высота снежного покрова, см. При наведении курсора мыши на число - состояние снежного покрова и степень покрытия местности в баллах.